Weather History for KIKK - August, 2014

Change the Weather History Date:

Friday, August 22, 2014

  Actual Average Record
Temperature  
Mean Temperature 76 °F -  
Max Temperature 83 °F 82 °F 93 °F (1983)
Min Temperature 70 °F 59 °F 48 °F (2004)
Cooling Degree Days 12    
Growing Degree Days 26 (Base 50)    
Moisture  
Dew Point 73 °F    
Average Humidity 90    
Maximum Humidity 98    
Minimum Humidity 75    
Precipitation  
Precipitation 0.46 in - - ()
Sea Level Pressure  
Sea Level Pressure 29.96 in    
Wind  
Wind Speed 5 mph (SW)    
Max Wind Speed 13 mph    
Max Gust Speed 25 mph    
Visibility 9 miles    
Events Rain , Thunderstorm    
Averages and records for this station are not official NWS values.
T = Trace of Precipitation, MM = Missing Value Source: NWS Daily Summary

Daily Weather History Graph

Daily Weather History Graph

Search for Another Location

Airport or City:

Trip Planner

Search our weather history database for the weather conditions in past years. The results will help you decide how hot, cold, wet, or windy it might be!

Date:

Astronomy

Aug. 22, 2014 Rise Set
Actual Time 6:08 AM CDT 7:39 PM CDT
Civil Twilight 5:39 AM CDT 8:08 PM CDT
Nautical Twilight 5:04 AM CDT 8:43 PM CDT
Astronomical Twilight 4:26 AM CDT 9:20 PM CDT
Moon 3:29 AM CDT (8/22) 5:48 PM CDT (8/22)
Length of Visible Light 14h 29m
Length of Day
13h 31m
Waning Crescent, 7% of the Moon is Illuminated
Aug 22
Waning Crescent
Aug 25
New
Sep 2
First Quarter
Sep 8
Full
Sep 15
Last Quarter

Hourly Weather History & Observations

Time (CDT) Temp. Heat Index Dew Point Humidity Pressure Visibility Wind Dir Wind Speed Gust Speed Precip Events Conditions
12:15 AM 73.0 °F - 72.0 °F 96% 29.95 in 10.0 mi East 4.6 mph - 0.01 in Rain Light Rain
12:35 AM 73.4 °F - 72.5 °F 97% 29.93 in 10.0 mi ESE 5.8 mph - 0.01 in   Mostly Cloudy
12:55 AM 73.4 °F - 72.5 °F 97% 29.92 in 10.0 mi SE 3.5 mph - 0.01 in Thunderstorm Scattered Clouds
1:15 AM 73.4 °F - 72.5 °F 97% 29.92 in 5.0 mi Calm Calm - 0.01 in Rain , Thunderstorm Thunderstorms and Rain
1:55 AM 73.8 °F - 72.1 °F 95% 29.92 in 4.0 mi West 12.7 mph 25.3 mph 0.24 in Rain , Thunderstorm Heavy Thunderstorms and Rain
2:15 AM 73.8 °F - 72.5 °F 96% 29.91 in 5.0 mi SW 12.7 mph 19.6 mph 0.14 in Rain , Thunderstorm Thunderstorms and Rain
2:35 AM 73.4 °F - 71.4 °F 93% 29.89 in 10.0 mi WSW 3.5 mph - 0.15 in Rain , Thunderstorm Light Thunderstorms and Rain
2:55 AM 73.4 °F - 72.1 °F 96% 29.92 in 10.0 mi WNW 8.1 mph 19.6 mph 0.16 in Rain , Thunderstorm Thunderstorms and Rain
3:15 AM 73.8 °F - 72.5 °F 96% 29.91 in 10.0 mi West 9.2 mph - 0.01 in Rain , Thunderstorm Light Thunderstorms and Rain
3:35 AM 73.4 °F - 72.1 °F 96% 29.93 in 10.0 mi WNW 6.9 mph - 0.03 in Rain , Thunderstorm Light Thunderstorms and Rain
3:55 AM 73.2 °F - 71.8 °F 95% 29.92 in 10.0 mi North 4.6 mph - 0.03 in Rain , Thunderstorm Light Thunderstorms and Rain
4:15 AM 73.0 °F - 71.6 °F 95% 29.95 in 10.0 mi NNW 3.5 mph - N/A Thunderstorm Unknown
4:35 AM 73.0 °F - 71.6 °F 95% 29.96 in 10.0 mi West 3.5 mph - N/A Rain , Thunderstorm Rain
4:55 AM 72.5 °F - 71.2 °F 96% 29.95 in 10.0 mi Calm Calm - 0.01 in Rain , Thunderstorm Light Thunderstorms and Rain
5:15 AM 72.1 °F - 71.1 °F 96% 29.95 in 10.0 mi Calm Calm - N/A Rain , Thunderstorm Light Thunderstorms and Rain
5:35 AM 71.6 °F - 70.7 °F 97% 29.93 in 10.0 mi Calm Calm - N/A Thunderstorm Scattered Clouds
5:55 AM 71.8 °F - 71.1 °F 98% 29.95 in 10.0 mi Calm Calm - N/A Thunderstorm Scattered Clouds
6:15 AM 71.6 °F - 70.7 °F 97% 29.97 in 10.0 mi SW 4.6 mph - 0.01 in Thunderstorm Scattered Clouds
6:35 AM 71.4 °F - 70.3 °F 96% 29.96 in 10.0 mi WSW 8.1 mph - 0.01 in   Scattered Clouds
6:55 AM 72.9 °F - 71.4 °F 95% 29.95 in 10.0 mi SW 8.1 mph - 0.01 in Thunderstorm Clear
7:15 AM 73.4 °F - 71.6 °F 94% 29.94 in 10.0 mi SW 9.2 mph - N/A Thunderstorm Clear
7:35 AM 72.5 °F - 71.4 °F 96% 29.95 in 10.0 mi SSE 6.9 mph - N/A Thunderstorm Clear
7:55 AM 72.7 °F - 71.6 °F 96% 29.95 in 10.0 mi SSE 6.9 mph - N/A   Clear
8:15 AM 73.0 °F - 71.8 °F 96% 29.97 in 10.0 mi SSW 3.5 mph - N/A Thunderstorm Clear
8:35 AM 73.4 °F - 72.5 °F 97% 29.97 in 10.0 mi WSW 4.6 mph - N/A   Clear
8:55 AM 73.8 °F - 72.3 °F 95% 29.97 in 10.0 mi WSW 6.9 mph - N/A   Clear
9:15 AM 73.9 °F - 72.7 °F 96% 29.96 in 10.0 mi WSW 5.8 mph - N/A   Clear
9:35 AM 74.5 °F - 72.9 °F 95% 29.96 in 10.0 mi SW 5.8 mph - N/A   Clear
9:55 AM 75.4 °F - 72.7 °F 91% 29.97 in 10.0 mi SW 8.1 mph - N/A   Clear
10:15 AM 75.9 °F - 72.7 °F 90% 29.99 in 10.0 mi WSW 6.9 mph - N/A   Clear
10:35 AM 77.0 °F - 73.4 °F 89% 30.00 in 10.0 mi SW 8.1 mph - N/A   Clear
10:55 AM 76.1 °F - 72.7 °F 89% 30.00 in 10.0 mi WSW 9.2 mph - N/A   Scattered Clouds
11:15 AM 76.1 °F - 72.7 °F 89% 29.99 in 10.0 mi SW 6.9 mph - N/A   Mostly Cloudy
11:35 AM 77.0 °F - 73.4 °F 89% 29.99 in 10.0 mi WSW 8.1 mph - N/A   Overcast
11:55 AM 78.4 °F - 73.4 °F 84% 29.97 in 10.0 mi WSW 5.8 mph - N/A   Mostly Cloudy
12:15 PM 78.1 °F - 72.9 °F 84% 29.97 in 10.0 mi West 4.6 mph - N/A   Scattered Clouds
12:35 PM 78.1 °F - 73.2 °F 85% 29.98 in 10.0 mi West 5.8 mph - N/A   Scattered Clouds
12:55 PM 77.5 °F - 72.9 °F 85% 29.99 in 10.0 mi West 5.8 mph - N/A   Mostly Cloudy
1:15 PM 78.3 °F - 73.2 °F 84% 29.97 in 10.0 mi West 4.6 mph - N/A   Scattered Clouds
1:35 PM 78.8 °F - 73.2 °F 83% 29.97 in 10.0 mi West 3.5 mph - N/A   Clear
1:55 PM 79.9 °F - 74.1 °F 82% 29.96 in 10.0 mi SW 3.5 mph - N/A   Clear
2:15 PM 81.1 °F 87.0 °F 74.8 °F 81% 29.96 in 10.0 mi SSW 3.5 mph - N/A   Clear
2:35 PM 81.0 °F 86.2 °F 73.9 °F 79% 29.95 in 10.0 mi Calm Calm - N/A   Scattered Clouds
2:55 PM 80.8 °F 85.9 °F 73.9 °F 80% 29.95 in 10.0 mi Calm Calm - N/A   Scattered Clouds
3:15 PM 81.7 °F 86.9 °F 73.2 °F 75% 29.95 in 10.0 mi West 3.5 mph - N/A   Clear
3:35 PM 83.7 °F 91.3 °F 74.8 °F 75% 29.96 in 10.0 mi West 3.5 mph - N/A   Clear
3:55 PM 83.7 °F 92.0 °F 75.7 °F 77% 29.96 in 10.0 mi WSW 9.2 mph - N/A   Mostly Cloudy
4:15 PM 82.2 °F 88.5 °F 74.5 °F 77% 29.96 in 10.0 mi SW 5.8 mph - N/A   Scattered Clouds
4:35 PM 82.4 °F 89.5 °F 75.2 °F 79% 29.96 in 10.0 mi WSW 4.6 mph - N/A   Clear
4:55 PM 83.1 °F 90.1 °F 74.5 °F 75% 29.96 in 10.0 mi WSW 5.8 mph - N/A   Clear
5:15 PM 82.8 °F 89.5 °F 74.5 °F 76% 29.97 in 10.0 mi WSW 6.9 mph - N/A   Clear
5:35 PM 82.9 °F 90.5 °F 75.4 °F 78% 29.97 in 10.0 mi SW 5.8 mph - N/A   Scattered Clouds
5:55 PM 82.6 °F 89.7 °F 75.2 °F 78% 29.97 in 10.0 mi SW 5.8 mph - N/A   Scattered Clouds
6:15 PM 82.2 °F 88.8 °F 74.8 °F 78% 29.97 in 10.0 mi SW 4.6 mph - N/A   Clear
6:35 PM 81.5 °F 87.4 °F 74.5 °F 79% 29.96 in 10.0 mi SSW 5.8 mph - N/A   Clear
6:55 PM 79.9 °F - 74.7 °F 84% 29.97 in 10.0 mi SW 3.5 mph - N/A   Clear
7:15 PM 78.3 °F - 73.8 °F 86% 29.97 in 10.0 mi SW 4.6 mph - N/A   Clear
7:35 PM 77.4 °F - 73.4 °F 88% 29.97 in 10.0 mi Calm Calm - N/A   Clear
7:55 PM 74.8 °F - 73.0 °F 94% 29.97 in 10.0 mi Calm Calm - N/A   Clear
8:15 PM 75.0 °F - 73.6 °F 95% 29.98 in 10.0 mi Calm Calm - N/A   Clear
8:35 PM 71.8 °F - 70.2 °F 95% 29.99 in 10.0 mi Calm Calm - N/A   Clear
8:55 PM 73.4 °F - 72.5 °F 97% 29.99 in 10.0 mi South 3.5 mph - N/A   Clear
9:15 PM 71.4 °F - 70.7 °F 98% 30.00 in 7.0 mi South 3.5 mph - N/A   Clear
9:35 PM 71.8 °F - 71.1 °F 98% 30.00 in 5.0 mi South 3.5 mph - N/A   Clear
9:55 PM 71.6 °F - 71.1 °F 98% 30.00 in 7.0 mi Calm Calm - N/A   Clear
10:15 PM 72.5 °F - 72.0 °F 98% 30.00 in 7.0 mi Calm Calm - N/A   Clear
10:35 PM 71.6 °F - 69.8 °F 94% 30.00 in 7.0 mi SSW 3.5 mph - N/A   Clear
10:55 PM 71.2 °F - 70.7 °F 98% 30.00 in 7.0 mi Calm Calm - N/A   Scattered Clouds
11:15 PM 70.5 °F - 70.0 °F 98% 30.00 in 7.0 mi Calm Calm - N/A   Scattered Clouds
11:35 PM 71.6 °F - 69.8 °F 94% 30.00 in 5.0 mi Calm Calm - N/A   Mostly Cloudy
11:55 PM 71.2 °F - 70.7 °F 98% 29.99 in 7.0 mi East 3.5 mph - N/A   Scattered Clouds